Ellsworth AFB, SD

1:35 PM MDT on July 21, 2017 (GMT -0600)
Ellsworth Air Force Base

Weather History for KRCA - April, 2014

Change the Weather History Date:

Thursday, April 17, 2014

  Actual Average Record
Temperature  
Mean Temperature 41 °F -  
Max Temperature 54 °F 55 °F 87 °F (2005)
Min Temperature 28 °F 33 °F 19 °F (1999)
Degree Days  
Heating Degree Days 24    
Moisture  
Dew Point 30 °F    
Average Humidity 74    
Maximum Humidity 93    
Minimum Humidity 51    
Precipitation  
Precipitation 0.00 in - - ()
Sea Level Pressure  
Sea Level Pressure 30.12 in    
Wind  
Wind Speed 14 mph (SSE)    
Max Wind Speed 24 mph    
Max Gust Speed 30 mph    
Visibility 10 miles    
Events      
Averages and records for this station are not official NWS values.
T = Trace of Precipitation, MM = Missing Value Source: NWS Daily Summary

Daily Weather History Graph

Daily Weather History Graph

Search for Another Location

Airport or City:

Trip Planner

Search our weather history database for the weather conditions in past years. The results will help you decide how hot, cold, wet, or windy it might be!

Date:

Astronomy

Apr. 17, 2014 Rise Set
Actual Time 6:05 AM MDT 7:39 PM MDT
Civil Twilight 5:35 AM MDT 8:09 PM MDT
Nautical Twilight 4:58 AM MDT 8:46 PM MDT
Astronomical Twilight 4:19 AM MDT 9:26 PM MDT
Moon 10:31 PM MDT (4/17) 7:35 AM MDT (4/17)
Length of Visible Light 14h 34m
Length of Day
13h 33m
Waning Gibbous, 93% of the Moon is Illuminated
Apr 17
Waning Gibbous
Apr 22
Last Quarter
Apr 29
New
May 6
First Quarter
May 14
Full

Hourly Weather History & Observations

Time (MDT) Temp. Windchill Dew Point Humidity Pressure Visibility Wind Dir Wind Speed Gust Speed Precip Events Conditions
12:58 AM 31.1 °F 21.9 °F 24.8 °F 77% 30.23 in 10.0 mi South 11.5 mph - N/A   Overcast
1:28 AM 32.0 °F 21.6 °F 26.6 °F 80% 30.16 in 10.0 mi South 15.0 mph - N/A   Overcast
1:58 AM 30.7 °F 20.9 °F 26.1 °F 83% 30.16 in 10.0 mi South 12.7 mph - N/A   Overcast
2:43 AM 30.2 °F 20.2 °F 26.6 °F 86% 30.15 in 10.0 mi South 12.7 mph - N/A   Overcast
2:58 AM 29.8 °F 19.3 °F 26.2 °F 86% 30.23 in 10.0 mi South 13.8 mph - N/A   Overcast
3:48 AM 28.4 °F 18.0 °F 26.6 °F 93% 30.14 in 10.0 mi South 12.7 mph - N/A   Overcast
3:58 AM 29.1 °F 17.9 °F 26.1 °F 88% 30.22 in 10.0 mi South 15.0 mph - N/A   Overcast
4:58 AM 28.4 °F 19.1 °F 25.2 °F 88% 30.22 in 10.0 mi SSE 10.4 mph - N/A   Overcast
5:18 AM 28.4 °F 18.5 °F 24.8 °F 86% 30.13 in 10.0 mi SSE 11.5 mph - N/A   Overcast
5:23 AM 28.4 °F 19.1 °F 26.6 °F 93% 30.13 in 10.0 mi SE 10.4 mph - N/A   Overcast
5:43 AM 30.2 °F 22.6 °F 26.6 °F 86% 30.13 in 10.0 mi SSE 8.1 mph - N/A   Overcast
5:58 AM 29.7 °F 19.6 °F 26.6 °F 88% 30.22 in 10.0 mi SSE 12.7 mph - N/A   Overcast
6:18 AM 30.2 °F 19.8 °F 26.6 °F 86% 30.13 in 10.0 mi SSE 13.8 mph - N/A   Overcast
6:38 AM 30.2 °F 20.2 °F 26.6 °F 86% 30.13 in 10.0 mi SSE 12.7 mph - N/A   Overcast
6:43 AM 30.2 °F 20.2 °F 26.6 °F 86% 30.13 in 10.0 mi SSE 12.7 mph - N/A   Overcast
6:58 AM 30.2 °F 19.8 °F 26.6 °F 86% 30.22 in 10.0 mi SE 13.8 mph - N/A   Overcast
7:06 AM 30.2 °F 20.8 °F 26.6 °F 86% 30.13 in 10.0 mi SE 11.5 mph - N/A   Overcast
7:26 AM 32.0 °F 22.1 °F 26.6 °F 80% 30.14 in 10.0 mi SSE 13.8 mph - N/A   Overcast
7:58 AM 31.8 °F 21.8 °F 27.3 °F 83% 30.23 in 10.0 mi SSE 13.8 mph - N/A   Overcast
8:58 AM 35.1 °F 25.2 °F 28.9 °F 78% 30.22 in 10.0 mi South 16.1 mph - N/A   Overcast
9:03 AM 35.6 °F 25.2 °F 28.4 °F 75% 30.12 in 10.0 mi South 18.4 mph - N/A   Overcast
9:58 AM 38.8 °F 29.1 °F 29.7 °F 70% 30.21 in 10.0 mi SSE 19.6 mph 26.5 mph N/A   Overcast
10:08 AM 41.0 °F 32.2 °F 30.2 °F 65% 30.11 in 10.0 mi SSE 18.4 mph 24.2 mph N/A   Overcast
11:08 AM 44.6 °F 36.9 °F 32.0 °F 61% 30.10 in 10.0 mi SSE 18.4 mph 27.6 mph N/A   Mostly Cloudy
11:18 AM 44.6 °F 37.2 °F 32.0 °F 61% 30.09 in 10.0 mi South 17.3 mph 27.6 mph N/A   Mostly Cloudy
11:28 AM 44.6 °F 35.9 °F 32.0 °F 61% 30.08 in 10.0 mi South 23.0 mph 27.6 mph N/A   Mostly Cloudy
11:43 AM 44.6 °F 36.1 °F 32.0 °F 61% 30.07 in 10.0 mi SSE 21.9 mph 29.9 mph N/A   Scattered Clouds
11:58 AM 45.9 °F 37.6 °F 33.1 °F 61% 30.14 in 10.0 mi SSE 23.0 mph 28.8 mph N/A   Scattered Clouds
12:58 PM 48.9 °F - 33.6 °F 56% 30.11 in 10.0 mi South 19.6 mph 26.5 mph N/A   Clear
1:58 PM 48.6 °F - 33.6 °F 56% 30.09 in 10.0 mi South 20.7 mph 27.6 mph N/A   Mostly Cloudy
2:58 PM 51.4 °F - 34.3 °F 52% 30.08 in 10.0 mi South 24.2 mph 29.9 mph N/A   Mostly Cloudy
3:58 PM 52.9 °F - 35.4 °F 52% 30.06 in 10.0 mi SSE 20.7 mph 27.6 mph N/A   Partly Cloudy
4:58 PM 54.1 °F - 36.3 °F 51% 30.03 in 10.0 mi SSE 18.4 mph - N/A   Partly Cloudy
5:58 PM 53.6 °F - 36.9 °F 53% 30.01 in 10.0 mi SSE 23.0 mph 26.5 mph N/A   Clear
6:58 PM 50.9 °F - 36.9 °F 59% 30.01 in 10.0 mi SE 16.1 mph - N/A   Clear
7:58 PM 46.9 °F - 35.8 °F 65% 30.03 in 10.0 mi SE 16.1 mph - N/A   Partly Cloudy
8:58 PM 43.0 °F 36.0 °F 35.1 °F 74% 30.04 in 10.0 mi SSE 13.8 mph - N/A   Clear
9:58 PM 41.5 °F 35.0 °F 34.5 °F 76% 30.02 in 10.0 mi SSE 11.5 mph - N/A   Mostly Cloudy
10:58 PM 42.1 °F 35.2 °F 34.7 °F 75% 30.00 in 10.0 mi South 12.7 mph - N/A   Overcast
11:58 PM 40.6 °F 33.8 °F 34.7 °F 79% 29.97 in 10.0 mi SSE 11.5 mph - N/A   Scattered Clouds